This is the latest recevied weather packets stored in our database for station/object SR9WXGR. If no packets are shown the sender has not sent any weather packets the latest 10 day(s).
| Time | Temp. | Humidity | Pressure | Rain* | Wind** | Luminosity | Snow |
|---|---|---|---|---|---|---|---|
| 1777797301 | 17.78° C | 29% | 981 hPa | - | - | - | - |
| 1777793700 | 16.67° C | 31% | 981 hPa | - | - | - | - |
| 1777790101 | 15° C | 33% | 981 hPa | - | - | - | - |
| 1777786501 | 12.78° C | 37% | 981 hPa | - | - | - | - |
| 1777782900 | 10.56° C | 42% | 981 hPa | - | - | - | - |
| 1777779301 | 10° C | 44% | 981 hPa | - | - | - | - |
| 1777775701 | 10° C | 46% | 981 hPa | - | - | - | - |
| 1777772100 | 8.89° C | 52% | 981 hPa | - | - | - | - |
| 1777768502 | 10° C | 47% | 981 hPa | - | - | - | - |
| 1777764900 | 10° C | 51% | 982 hPa | - | - | - | - |
| 1777761301 | 10.56° C | 50% | 982 hPa | - | - | - | - |
| 1777757701 | 10.56° C | 48% | 982 hPa | - | - | - | - |
| 1777754104 | 12.78° C | 43% | 982 hPa | - | - | - | - |
| 1777750500 | 15° C | 38% | 982 hPa | - | - | - | - |
| 1777746900 | 17.78° C | 31% | 982 hPa | - | - | - | - |
| 1777743301 | 22.78° C | 23% | 982 hPa | - | - | - | - |
| 1777739700 | 26.67° C | 19% | 982 hPa | - | - | - | - |
| 1777736100 | 25.56° C | 20% | 983 hPa | - | - | - | - |
| 1777732500 | 25° C | 22% | 983 hPa | - | - | - | - |
| 1777728900 | 21.67° C | 25% | 983 hPa | - | - | - | - |
| 1777725301 | 18.89° C | 29% | 984 hPa | - | - | - | - |
| 1777721701 | 17.78° C | 32% | 985 hPa | - | - | - | - |
| 1777718101 | 16.67° C | 35% | 985 hPa | - | - | - | - |
| 1777714501 | 15.56° C | 34% | 985 hPa | - | - | - | - |
| 1777710901 | 15° C | 37% | 986 hPa | - | - | - | - |
* Rain since midnight (hover to see other rain measurements)
** Current wind speed in m/s (hover to see current wind gust speed)